Weather History for Blackwell, OK

Change the Weather History Date:

Monday, February 4, 2013

  Actual Average (KPNC) Record (KPNC)
Temperature  
Mean Temperature 48 °F -  
Max Temperature 62 °F 55 °F 75 °F (2008)
Min Temperature 35 °F 28 °F 8 °F (2011)
Degree Days  
Heating Degree Days 16    
Moisture  
Dew Point 28 °F    
Average Humidity 48    
Maximum Humidity 75    
Minimum Humidity 23    
Precipitation  
Precipitation 0.00 in - - ()
Sea Level Pressure  
Sea Level Pressure 29.88 in    
Wind  
Wind Speed 10 mph (North)    
Max Wind Speed 17 mph    
Max Gust Speed 24 mph    
Visibility 10 miles    
Events Thunderstorm    
Averages and records for this station are not official NWS values.
T = Trace of Precipitation, MM = Missing Value Source: NWS Daily Summary

Daily Weather History Graph

Daily Weather History Graph

Search for Another Location

Airport:

Trip Planner

Search our weather history database for the weather conditions in past years. The results will help you decide how hot, cold, wet, or windy it might be!

Date:

Astronomy

Feb. 04, 2013 Rise Set
Actual Time 7:28 AM CST 5:58 PM CST
Civil Twilight 7:01 AM CST 6:25 PM CST
Nautical Twilight 6:30 AM CST 6:56 PM CST
Astronomical Twilight 6:00 AM CST 7:26 PM CST
Moon 2:03 AM CST (2/4) 12:25 PM CST (2/4)
Length of Visible Light 11h 24m
Length of Day
10h 29m
Last Quarter, 37% of the Moon is Illuminated
Feb 4
Last Quarter
Feb 10
New
Feb 17
First Quarter
Feb 25
Full
Mar 4
Last Quarter

Hourly Weather History & Observations

Time (CST) Temp. Windchill Dew Point Humidity Pressure Visibility Wind Dir Wind Speed Gust Speed Precip Events Conditions
12:15 AM 48.2 °F - 32.0 °F 54% 29.86 in 10.0 mi South 10.4 mph - N/A   Overcast
12:35 AM 48.2 °F - 32.0 °F 54% 29.85 in 10.0 mi South 10.4 mph - N/A Thunderstorm Scattered Clouds
12:55 AM 48.2 °F - 32.0 °F 54% 29.85 in 10.0 mi South 10.4 mph - N/A   Scattered Clouds
1:15 AM 48.2 °F - 32.0 °F 54% 29.84 in 10.0 mi South 9.2 mph - N/A   Partly Cloudy
1:35 AM 48.2 °F - 32.0 °F 54% 29.84 in 10.0 mi South 10.4 mph - N/A   Scattered Clouds
1:55 AM 48.2 °F - 32.0 °F 54% 29.82 in 10.0 mi South 11.5 mph - N/A   Scattered Clouds
2:15 AM 48.2 °F - 32.0 °F 54% 29.82 in 10.0 mi SSE 10.4 mph - N/A   Scattered Clouds
2:35 AM 48.2 °F - 32.0 °F 54% 29.81 in 10.0 mi South 9.2 mph - N/A   Partly Cloudy
2:55 AM 48.2 °F - 32.0 °F 54% 29.81 in 10.0 mi South 8.1 mph - N/A   Scattered Clouds
3:15 AM 48.2 °F - 32.0 °F 54% 29.80 in 10.0 mi SSE 8.1 mph - N/A   Mostly Cloudy
4:55 AM 46.4 °F 43.5 °F 32.0 °F 57% 29.79 in 10.0 mi South 5.8 mph - N/A   Overcast
5:15 AM 46.4 °F 43.5 °F 32.0 °F 57% 29.80 in 10.0 mi SW 5.8 mph - N/A   Mostly Cloudy
5:35 AM 46.4 °F 42.4 °F 32.0 °F 57% 29.81 in 10.0 mi WSW 8.1 mph - N/A   Scattered Clouds
5:55 AM 44.6 °F 40.7 °F 30.2 °F 57% 29.82 in 10.0 mi NW 6.9 mph - N/A   Scattered Clouds
6:15 AM 39.2 °F 35.9 °F 30.2 °F 70% 29.83 in 10.0 mi NW 4.6 mph - N/A   Partly Cloudy
6:35 AM 39.2 °F - 28.4 °F 65% 29.83 in 10.0 mi Calm Calm - N/A   Clear
6:55 AM 37.4 °F - 28.4 °F 70% 29.83 in 10.0 mi Calm Calm - N/A   Clear
7:15 AM 37.4 °F - 28.4 °F 70% 29.83 in 10.0 mi Calm Calm - N/A   Clear
7:35 AM 35.6 °F 30.7 °F 28.4 °F 75% 29.85 in 10.0 mi NW 5.8 mph - N/A   Clear
7:55 AM 37.4 °F 31.4 °F 28.4 °F 70% 29.85 in 10.0 mi NW 8.1 mph - N/A   Clear
8:15 AM 39.2 °F 33.0 °F 28.4 °F 65% 29.86 in 10.0 mi NNW 9.2 mph - N/A   Clear
8:35 AM 39.2 °F 33.0 °F 30.2 °F 70% 29.86 in 10.0 mi NNW 9.2 mph - N/A   Clear
8:55 AM 44.6 °F 38.8 °F 32.0 °F 61% 29.87 in 10.0 mi NNW 11.5 mph - N/A   Clear
9:15 AM 46.4 °F 40.4 °F 32.0 °F 57% 29.88 in 10.0 mi NNW 13.8 mph - N/A   Clear
9:35 AM 48.2 °F - 30.2 °F 50% 29.88 in 10.0 mi North 13.8 mph - N/A   Clear
9:55 AM 48.2 °F - 30.2 °F 50% 29.88 in 10.0 mi North 12.7 mph - N/A   Clear
10:15 AM 50.0 °F - 30.2 °F 47% 29.89 in 10.0 mi North 17.3 mph - N/A   Clear
10:35 AM 50.0 °F - 30.2 °F 47% 29.90 in 10.0 mi North 12.7 mph - N/A   Clear
10:55 AM 51.8 °F - 30.2 °F 44% 29.90 in 10.0 mi North 12.7 mph - N/A   Clear
11:15 AM 53.6 °F - 30.2 °F 41% 29.90 in 10.0 mi North 12.7 mph 17.3 mph N/A   Clear
11:35 AM 55.4 °F - 30.2 °F 38% 29.90 in 10.0 mi North 11.5 mph - N/A   Clear
11:55 AM 55.4 °F - 28.4 °F 36% 29.90 in 10.0 mi North 12.7 mph - N/A   Clear
12:15 PM 57.2 °F - 28.4 °F 33% 29.90 in 10.0 mi North 16.1 mph - N/A   Clear
12:35 PM 57.2 °F - 28.4 °F 33% 29.89 in 10.0 mi North 13.8 mph 21.9 mph N/A   Clear
12:55 PM 59.0 °F - 28.4 °F 31% 29.89 in 10.0 mi North 13.8 mph 18.4 mph N/A   Clear
1:15 PM 59.0 °F - 28.4 °F 31% 29.88 in 10.0 mi North 15.0 mph 18.4 mph N/A   Clear
1:35 PM 59.0 °F - 28.4 °F 31% 29.88 in 10.0 mi North 12.7 mph - N/A   Clear
1:55 PM 60.8 °F - 26.6 °F 27% 29.87 in 10.0 mi North 15.0 mph 19.6 mph N/A   Clear
2:15 PM 60.8 °F - 26.6 °F 27% 29.87 in 10.0 mi NNE 15.0 mph 19.6 mph N/A   Clear
2:35 PM 62.6 °F - 26.6 °F 26% 29.87 in 10.0 mi NNE 13.8 mph 18.4 mph N/A   Clear
2:55 PM 62.6 °F - 26.6 °F 26% 29.86 in 10.0 mi NNE 15.0 mph - N/A   Clear
3:15 PM 62.6 °F - 24.8 °F 24% 29.86 in 10.0 mi North 10.4 mph - N/A   Clear
3:35 PM 62.6 °F - 24.8 °F 24% 29.87 in 10.0 mi NE 11.5 mph 24.2 mph N/A   Clear
3:55 PM 62.6 °F - 24.8 °F 24% 29.87 in 10.0 mi NNE 10.4 mph 19.6 mph N/A   Clear
4:15 PM 60.8 °F - 24.8 °F 25% 29.87 in 10.0 mi North 16.1 mph - N/A   Clear
4:35 PM 60.8 °F - 23.0 °F 23% 29.88 in 10.0 mi North 12.7 mph - N/A   Clear
4:55 PM 59.0 °F - 23.0 °F 25% 29.88 in 10.0 mi North 11.5 mph - N/A   Clear
5:15 PM 57.2 °F - 23.0 °F 27% 29.89 in 10.0 mi NNE 8.1 mph - N/A   Clear
5:35 PM 55.4 °F - 24.8 °F 31% 29.89 in 10.0 mi North 8.1 mph - N/A   Clear
6:15 PM 53.6 °F - 26.6 °F 35% 29.90 in 9.0 mi North 10.4 mph - N/A   Mostly Cloudy
6:35 PM 50.0 °F - 26.6 °F 40% 29.90 in 10.0 mi North 9.2 mph - N/A   Partly Cloudy
6:55 PM 48.2 °F - 26.6 °F 43% 29.91 in 5.0 mi North 9.2 mph - N/A   Haze
7:15 PM 48.2 °F - 24.8 °F 40% 29.91 in 2.5 mi North 8.1 mph - N/A   Haze
7:35 PM 46.4 °F 42.4 °F 24.8 °F 43% 29.92 in 7.0 mi NNE 8.1 mph - N/A   Clear
7:55 PM 46.4 °F 43.5 °F 24.8 °F 43% 29.92 in 10.0 mi NE 5.8 mph - N/A   Clear
8:15 PM 44.6 °F 40.7 °F 24.8 °F 46% 29.93 in 10.0 mi NNE 6.9 mph - N/A   Clear
8:55 PM 41.0 °F 36.4 °F 24.8 °F 53% 29.94 in 10.0 mi North 6.9 mph - N/A   Clear
9:15 PM 39.2 °F 34.2 °F 24.8 °F 56% 29.95 in 10.0 mi North 6.9 mph - N/A   Clear
9:35 PM 39.2 °F 33.6 °F 24.8 °F 56% 29.96 in 10.0 mi North 8.1 mph - N/A   Clear
9:55 PM 39.2 °F 33.0 °F 24.8 °F 56% 29.96 in 10.0 mi North 9.2 mph - N/A   Clear
10:15 PM 39.2 °F 33.6 °F 24.8 °F 56% 29.96 in 10.0 mi North 8.1 mph - N/A   Clear
10:35 PM 37.4 °F 32.8 °F 24.8 °F 60% 29.97 in 10.0 mi NNE 5.8 mph - N/A   Clear
10:55 PM 37.4 °F 33.8 °F 24.8 °F 60% 29.96 in 10.0 mi NNE 4.6 mph - N/A   Clear
11:15 PM 37.4 °F 33.8 °F 24.8 °F 60% 29.96 in 10.0 mi NE 4.6 mph - N/A   Clear
11:35 PM 37.4 °F 34.9 °F 26.6 °F 65% 29.96 in 10.0 mi NE 3.5 mph - N/A   Clear
11:55 PM 35.6 °F 31.7 °F 24.8 °F 65% 29.95 in 10.0 mi ENE 4.6 mph - N/A   Clear